User: anonymous   Login
Location: Holiday Acres Laynes 2 Mobile Home Park
(26.7249°N, 81.8671°W)
Time: 20:23:00
(UTC+00:00)
Language:

Cosmos 1782 - Orbit

View from above orbital plane
View from above orbital plane
View from above satellite
View from above satellite

Ground track
Ground track

The orbit data is extracted from the following two-line orbital elements,

1 16986U 86074A   21060.48868327 -.00000027  00000-0 -37562-5 0  9999
2 16986  82.5034 243.7946 0012153  47.1371 313.0876 15.07460643853497
Epoch (UTC): 01 March 2021 11:43:42
Eccentricity: 0.0012153
inclination: 82.5034°
perigee height: 535 km
apogee height: 552 km
right ascension of ascending node: 243.7946°
argument of perigee: 47.1371°
revolutions per day: 15.07460643
mean anomaly at epoch: 313.0876°
orbit number at epoch: 85349

The dashed part of the orbit path shows where the satellite is in the earth's shadow,  

DLR